metlocid,date_time,avg_surfelevchange,std_surfelevchange,min_surfelevchange,max_surfelevchange,n_surfelevchange,n_comments
FRLM,1/1/02,,,,,0,0
FRLM,2/1/02,,,,,0,0
FRLM,3/1/02,,,,,0,0
FRLM,4/1/02,,,,,0,0
FRLM,5/1/02,,,,,0,0
FRLM,6/1/02,,,,,0,0
FRLM,7/1/02,,,,,0,0
FRLM,8/1/02,,,,,0,0
FRLM,9/1/02,,,,,0,0
FRLM,10/1/02,,,,,0,0
FRLM,11/1/02,2.853899573,2.064428769,-0.6,6.6,1872,2
FRLM,12/1/02,0.556115589,1.339109034,-1,5.1,2976,0
FRLM,1/1/03,0.02184874,0.151854524,-0.7,0.9,2975,1
FRLM,2/1/03,0.120535716,0.111801617,-0.4,0.9,2688,0
FRLM,3/1/03,0.511021501,1.04171134,-1.2,2.3,2976,0
FRLM,4/1/03,0.505833338,0.575903178,-0.9,1.5,2880,0
FRLM,5/1/03,0.3686828,0.675287987,-0.9,3.5,2976,0
FRLM,6/1/03,1.540833338,1.378512985,-0.8,5,2880,0
FRLM,7/1/03,1.928398378,0.475888927,0.6,3.1,2972,4
FRLM,8/1/03,1.196639784,1.501954615,-0.1,9.9,2976,0
FRLM,9/1/03,0.598472224,0.919706917,-0.7,4.4,2880,0
FRLM,10/1/03,0.891263443,1.092651208,-0.8,3.3,2976,0
FRLM,11/1/03,0.711388892,0.791748526,-0.5,7.4,2880,0
FRLM,12/1/03,1.349193552,2.196590025,-0.2,9.8,2976,0
FRLM,1/1/04,-0.00094086,0.091076413,-0.3,0.5,2976,0
FRLM,2/1/04,0.422988506,1.08491912,-0.5,3.4,2784,0
FRLM,3/1/04,3.065591388,1.000261576,1.8,7.1,2976,0
FRLM,4/1/04,5.089166679,1.251214348,-0.6,10,2880,0
FRLM,5/1/04,3.16182796,1.43292188,0.2,5.3,2976,0
FRLM,6/1/04,0.519722218,1.770571024,-1.5,4.7,2880,0
FRLM,7/1/04,-1.012634409,0.633285401,-2.1,0.6,2976,0
FRLM,8/1/04,-0.63606999,0.544404323,-2.3,3.6,2972,4
FRLM,9/1/04,1.093333333,1.236993746,-1.5,5.3,2880,0
FRLM,10/1/04,0.628494619,0.893747399,-0.8,2.2,2976,0
FRLM,11/1/04,0.076250001,0.159034407,-0.7,0.6,2880,0
FRLM,12/1/04,0.290725812,0.189208019,-0.2,1.9,2976,0
FRLM,1/1/05,0.076176078,0.203400412,-0.7,1.2,2976,0
FRLM,2/1/05,0.423214284,0.925154295,-0.9,2.6,2688,0
FRLM,3/1/05,0.402956992,0.767957896,-1.8,2,2976,0
FRLM,4/1/05,-1.071666667,0.608612488,-3.8,0.2,2880,0
FRLM,5/1/05,-0.854435487,0.61410355,-3.7,0,2976,0
FRLM,6/1/05,0.131805551,2.985913815,-2,21.5,2880,0
FRLM,7/1/05,-0.968010755,0.515414368,-2.2,0.3,2976,0
FRLM,8/1/05,-0.771908605,0.409308313,-1.9,0.5,2976,0
FRLM,9/1/05,-0.860277781,0.31756267,-1.9,-0.1,2880,0
FRLM,10/1/05,-0.551881726,0.218035123,-1.6,0.2,2976,0
FRLM,11/1/05,-0.381666672,0.181223505,-1.1,0.2,2880,0
FRLM,12/1/05,-0.122043013,0.186172398,-0.9,0.5,2976,0
FRLM,1/1/06,0.008467742,0.093604952,-0.4,0.4,2976,0
FRLM,2/1/06,0.75014881,2.733104895,-1.6,17.7,2688,0
FRLM,3/1/06,0.698118274,1.666305677,-2,5.4,2976,0
FRLM,4/1/06,0.794861106,2.633334543,-1.8,5,2880,0
FRLM,5/1/06,-0.624059142,0.545526454,-2.9,0.4,2976,0
FRLM,6/1/06,0.387777775,2.174081582,-1.5,8.2,2880,0
FRLM,7/1/06,-0.70954301,0.311444977,-1,0.2,2976,1396
FRLM,8/1/06,0.054301072,0.556587728,-2.1,1.8,2976,0
FRLM,9/1/06,0.526805557,0.621411019,-2.1,2.2,2880,4
FRLM,10/1/06,-1.300268816,23.46678307,-202.5,7,2976,40
FRLM,11/1/06,3.509722215,2.422486966,-0.2,6.9,2880,0
FRLM,12/1/06,0.440840345,0.189491855,-0.3,0.8,2975,1
FRLM,1/1/07,0.242885979,0.189372807,-0.6,0.7,2973,3
FRLM,2/1/07,0.638690467,2.813390813,-1.2,9.1,2688,0
FRLM,3/1/07,0.310080642,2.528012972,-1.8,8.1,2976,0
FRLM,4/1/07,-0.833055556,0.758193198,-3.1,0.2,2880,0
FRLM,5/1/07,-0.221236565,1.477624466,-2,5.1,2976,0
FRLM,6/1/07,-0.756111113,0.306631828,-1.8,0.7,2880,0
FRLM,7/1/07,-0.476209678,0.405920737,-1.4,0.6,2976,0
FRLM,8/1/07,-0.854838712,0.387402611,-1.8,4,2976,0
FRLM,9/1/07,2.687222243,3.886611465,-1.5,8.4,2880,0
FRLM,10/1/07,3.492473116,4.348090719,-2,12.4,2976,0
FRLM,11/1/07,2.333472218,3.51021598,-1.5,10.2,2880,0
FRLM,12/1/07,-0.017658931,0.220548466,-0.7,0.8,2973,3
FRLM,1/1/08,0.036559139,1.149611886,-0.7,30.9,2976,4
FRLM,2/1/08,-0.315660925,0.147023633,-0.8,0.5,2784,0
FRLM,3/1/08,-0.245698928,0.267415235,-1.1,0.4,2976,0
FRLM,4/1/08,-0.511111117,0.263756259,-1.3,1.8,2880,0
FRLM,5/1/08,-0.551478501,0.263086716,-1.3,0.4,2976,0
FRLM,6/1/08,0.616666668,1.02886443,-1.5,2.5,2880,0
FRLM,7/1/08,-0.604166669,0.787411103,-2.6,1.3,2976,0
FRLM,8/1/08,-0.004032259,0.492973016,-1.1,1.2,2976,0
FRLM,9/1/08,-0.107500002,0.375674922,-1.7,1.4,2880,0
FRLM,10/1/08,1.551209671,0.81133061,-0.7,3,2976,0
FRLM,11/1/08,-0.04263889,0.291743481,-0.9,0.8,2880,0
FRLM,12/1/08,-0.036693549,0.150420215,-0.8,0.5,2976,0
FRLM,1/1/09,0.108523524,0.178104892,-0.5,0.6,2147,0
FRLM,2/1/09,0.838571428,0.766049643,-0.6,2.6,1960,0
FRLM,3/1/09,-0.38164643,0.237861981,-1.4,0.8,2964,0
FRLM,4/1/09,-0.021602296,1.683927511,-2.3,6.2,2796,0
FRLM,5/1/09,-0.721803503,0.441604099,-1.8,0.1,2972,0
FRLM,6/1/09,-0.450356636,0.361769957,-1.9,0.1,2804,0
FRLM,7/1/09,-0.46986487,0.314648532,-1.7,0.2,2960,0
FRLM,8/1/09,0.434203295,2.645015887,-2.8,7.8,2912,0
FRLM,9/1/09,-0.519241579,0.263627903,-2.4,0.2,2848,0
FRLM,10/1/09,0.506621388,1.112098434,-1.3,3.1,2356,0
FRLM,11/1/09,1.093726936,1.301029851,-0.7,5.9,2168,0
FRLM,12/1/09,0.211967219,0.133718018,-0.3,0.7,2440,0
FRLM,1/1/10,69.85477203,49.37747454,-0.2,105.5,2976,0
FRLM,2/1/10,104.6507441,0.510987692,103.6,105.5,2688,0
FRLM,3/1/10,105.0659942,0.221741043,104.3,105.9,2976,0
FRLM,4/1/10,104.9070833,1.366290767,101.4,106.9,2880,0
FRLM,5/1/10,105.6216397,0.519549582,104.5,107,2976,0
FRLM,6/1/10,105.6452779,0.377858839,104.7,106.8,2880,0
FRLM,7/1/10,105.8197584,0.533691157,104.8,107,2976,0
FRLM,8/1/10,103.9219087,3.324537342,95.4,106.9,2976,0
FRLM,9/1/10,104.571667,1.814143788,97.4,106.9,2880,0
FRLM,10/1/10,104.9923386,0.89618924,102.8,106.8,2976,0
FRLM,11/1/10,105.1295825,0.178604997,104.7,106.2,2880,0
FRLM,12/1/10,104.9685947,0.163799275,104.4,105.7,2974,2
FRLM,1/1/11,104.8213714,0.148992448,103.8,105.4,2976,0
FRLM,2/1/11,104.8114588,0.397426902,101.6,105.7,2688,0
FRLM,3/1/11,105.061156,0.180036493,104.6,106,2976,0
FRLM,4/1/11,104.4792478,1.878348511,97,107.2,2872,8
FRLM,5/1/11,105.3418009,0.306632529,104.7,106.5,2976,0
FRLM,6/1/11,105.0723612,0.236742898,104.4,105.8,2880,0
FRLM,7/1/11,104.6378707,1.697995757,95.7,106.5,2968,8
FRLM,8/1/11,105.4428763,0.746570686,102.4,106.8,2976,0
FRLM,9/1/11,105.3742698,0.304708651,104.5,107,2876,4
FRLM,10/1/11,104.6151881,1.523127334,100,106.6,2976,0
FRLM,11/1/11,80.22405017,26.02020474,52.7,105.8,2844,36
FRLM,12/1/11,53.07464661,0.139032577,52.7,53.9,2974,2
FRLM,1/1/12,53.12956968,0.12781011,52.7,53.6,2976,0
FRLM,2/1/12,53.26497093,0.192577039,52,54.4,2752,32
FRLM,3/1/12,53.40593798,0.46297087,52.9,56.6,2964,12
FRLM,4/1/12,53.84983176,0.598531432,53.2,56.8,2376,504
FRLM,5/1/12,53.84090922,0.618772789,52.1,56.6,2904,72
FRLM,6/1/12,54.40881457,0.838786828,52.8,57.1,2632,248
FRLM,7/1/12,54.62385166,0.824919044,53.2,56.8,2264,712
FRLM,8/1/12,54.74350558,0.823443667,52.9,57.6,2556,420
FRLM,9/1/12,54.62142859,0.782019249,52.8,58.3,2688,192
FRLM,10/1/12,54.17910856,0.799587624,53,57.7,2872,104
FRLM,11/1/12,53.74362612,0.20252118,52.7,55.9,2879,0
FRLM,12/1/12,53.76599453,0.210991087,53.3,55.4,2976,0
FRLM,1/1/13,53.73741584,0.171240405,52,54.4,2972,4
FRLM,2/1/13,53.78214289,0.182631494,53.3,57.1,2688,0
FRLM,3/1/13,53.86940717,0.214523373,53.1,56.7,2968,8
FRLM,4/1/13,54.31293946,0.497762894,53.3,56.7,2844,36
FRLM,5/1/13,54.11718978,0.457312417,52.6,56.5,2932,44
FRLM,6/1/13,54.18885744,0.49525714,52.3,56.7,2836,44
FRLM,7/1/13,54.71666665,0.587299318,53.7,56.7,2952,24
FRLM,8/1/13,54.39481578,0.378003707,53.7,56.8,2932,44
FRLM,9/1/13,53.88943672,0.723919139,51.9,57.4,2840,40
FRLM,10/1/13,54.0025573,0.294742714,53.3,57.4,2972,4
FRLM,11/1/13,54.06305538,0.183733185,53.6,56.7,2880,0
FRLM,12/1/13,54.04220421,0.158118047,53.6,54.5,2976,0
FRLM,1/1/14,54.08870971,0.177319422,53.6,55.1,2976,2375
FRLM,2/1/14,54.11711284,0.243266429,53.7,57.5,2688,2688
FRLM,3/1/14,54.10860206,0.256531253,53.4,57.2,2976,2976
FRLM,4/1/14,56.04402778,35.83694568,0,614.5,2880,2880
FRLM,5/1/14,157.7052424,229.9757613,0,711,2976,2976
FRLM,6/1/14,62.96333326,67.8826088,0,652.4,2880,2880
FRLM,7/1/14,59.61142473,52.24429516,0,658,2976,2976
FRLM,8/1/14,54.17768821,5.319618316,0,59.4,2976,2976
FRLM,9/1/14,54.06166676,2.877410063,0,57.2,2880,2880
FRLM,10/1/14,54.84516137,23.4373923,51.2,693.5,2976,2976
FRLM,11/1/14,54.09951337,1.768422465,0,56.1,2876,2876
FRLM,12/1/14,54.26048405,0.238759239,53.7,54.9,2976,2976
FRLM,1/1/15,54.21115603,0.282598621,53.4,55.3,2976,2976
FRLM,2/1/15,54.21205385,0.30927183,53.7,55.6,2688,2688
FRLM,3/1/15,54.17661321,0.293006345,53.8,56.1,2976,2976
FRLM,4/1/15,54.16416676,2.14944131,0,57.3,2880,2880
FRLM,5/1/15,87.4645161,151.0537335,0,749,2976,2976
FRLM,6/1/15,54.43458328,3.589504385,0,57.4,2880,2880
FRLM,7/1/15,59.91169365,89.48308742,0,709,2976,2976
FRLM,8/1/15,40.44905912,32.5209595,0,615.8,2976,2976
FRLM,9/1/15,0.545833339,5.527191034,0,96.5,2880,2880
FRLM,10/1/15,0.231203763,3.633051887,0,57.5,2974,2974
FRLM,11/1/15,0.154444446,2.926831679,0,55.8,2880,2880
FRLM,12/1/15,17.55546043,25.61522908,0,56.9,1401,2929
FRLM,1/1/16,54.48663813,1.220268605,41.8,56.9,928,2976
FRLM,2/1/16,55.20714288,0.519149967,54.1,56.7,672,2784
FRLM,3/1/16,55.57064514,0.635619794,53.9,58.1,1240,2976
FRLM,4/1/16,56.0482757,0.52154975,55,57.1,348,2880
FRLM,5/1/16,56.06470579,0.430120861,55.4,57.1,68,2227
FRLM,11/1/16,54.26476181,3.524486437,45.1,57.6,2520,2523
FRLM,12/1/16,56.25336007,1.003571112,50.3,57.2,2976,2976
FRLM,1/1/17,55.67755385,0.559080901,54.9,56.7,2976,2976
FRLM,2/1/17,55.5604169,0.217804664,54.9,56.2,2688,2688
FRLM,3/1/17,55.47647875,0.422236446,54.3,56.4,2976,2976
FRLM,4/1/17,56.05361134,0.659375985,54.7,59.1,2880,2880
FRLM,5/1/17,55.1919355,0.764728065,52.7,56.3,2976,2976
FRLM,6/1/17,54.46111096,0.387242172,53.4,55.3,2880,2880
FRLM,7/1/17,54.42822583,0.301452593,52.8,55.3,2976,2976
FRLM,8/1/17,54.51680103,0.447138384,52.3,56.6,2976,2976
FRLM,9/1/17,54.81069449,0.219784349,53.8,56,2880,2880
FRLM,10/1/17,54.39502695,0.316942522,53.2,55,2976,2976
FRLM,11/1/17,54.28833342,0.174919418,53.4,55.2,2880,2880
FRLM,12/1/17,54.11849097,0.282219636,51.1,55.1,2969,2970
FRLM,1/1/18,54.05833303,0.181527885,53,54.5,2976,2976
FRLM,2/1/18,54.12187499,0.246594789,52.5,54.6,2688,2688
FRLM,3/1/18,53.60416672,1.124993128,50.4,54.6,2976,2976
FRLM,4/1/18,54.4252779,0.174194565,54,54.9,2880,2880
FRLM,5/1/18,54.60819891,0.15720242,54.1,55.2,2976,2976
FRLM,6/1/18,54.45249974,0.464084008,52.2,55,2880,2880
FRLM,7/1/18,54.33333335,1.263865358,47.9,55.4,2976,2976
FRLM,8/1/18,54.87110225,0.608321703,53.9,57,2976,2976
FRLM,9/1/18,54.48347232,0.362641104,53.9,56.7,2880,2880
FRLM,10/1/18,54.27594079,0.107151809,53.8,55.2,2976,2976
FRLM,11/1/18,54.17736099,0.127175648,53.7,54.6,2880,2880
FRLM,12/1/18,54.08800518,0.147067699,53.3,54.5,2968,534
FRLM,1/1/19,54.90639091,0.949419831,53.6,58.4,2128,848
FRLM,2/1/19,,,,,0,2688
FRLM,3/1/19,,,,,0,2976
FRLM,4/1/19,,,,,0,2880
FRLM,5/1/19,,,,,0,2976
FRLM,6/1/19,,,,,0,2880
FRLM,7/1/19,,,,,0,2976
FRLM,8/1/19,,,,,0,2976
FRLM,9/1/19,,,,,0,2880
FRLM,10/1/19,,,,,0,2976
FRLM,11/1/19,,,,,0,2880
FRLM,12/1/19,,,,,0,2972
FRLM,1/1/20,,,,,0,2976
FRLM,2/1/20,,,,,0,2784
FRLM,3/1/20,,,,,0,2976
FRLM,4/1/20,,,,,0,2880
FRLM,5/1/20,,,,,0,2976
FRLM,6/1/20,,,,,0,2880
FRLM,7/1/20,,,,,0,2976
FRLM,8/1/20,,,,,0,2976
FRLM,9/1/20,,,,,0,2880
FRLM,10/1/20,,,,,0,2976
FRLM,11/1/20,,,,,0,2880
FRLM,12/1/20,,,,,0,2976
FRLM,1/1/21,,,,,0,2976
FRLM,2/1/21,,,,,0,2688
FRLM,3/1/21,,,,,0,2976
FRLM,4/1/21,,,,,0,2880
FRLM,5/1/21,,,,,0,2976
FRLM,6/1/21,,,,,0,2880
FRLM,7/1/21,,,,,0,2976
FRLM,8/1/21,,,,,0,2976
FRLM,9/1/21,,,,,0,2880
FRLM,10/1/21,,,,,0,2976
FRLM,11/1/21,54.6666673,0.076138989,54.5,54.7,24,2872
FRLM,12/1/21,54.53483666,1.743305057,0,55,2971,2971
FRLM,1/1/22,54.4306452,0.157719986,53.9,54.8,2976,2976
FRLM,2/1/22,54.56785678,0.123016827,54.2,54.8,2688,2688
FRLM,3/1/22,54.46599459,0.313869221,53.5,55,2976,2976
FRLM,4/1/22,53.10624999,1.262614263,51.1,55.2,2880,2880
FRLM,5/1/22,54.74717742,0.30952192,54.1,55.7,2976,2976
FRLM,6/1/22,54.87055557,0.175528941,54.2,55.8,2880,2880
FRLM,7/1/22,54.98548396,0.269111682,54.2,55.9,2976,2976
FRLM,8/1/22,54.97701635,0.216051628,54.4,55.5,2976,2976
FRLM,9/1/22,54.83236117,0.233183075,54.2,55.7,2880,2880
FRLM,10/1/22,54.93091391,0.162041302,54.4,55.4,2976,2976
FRLM,11/1/22,54.87874988,0.198447702,54.2,55.5,2880,2880
FRLM,12/1/22,54.72022107,0.167358508,54.2,55.2,905,905